Regional Weather Roundup
Issued by NWS

Home | Current Version | Previous Version | Graphics & Text | Print | Product List | Glossary On
Versions: 1 2 3 4 5 6 7 8 9 10 11 12 13 14 15 16 17 18 19 20 21 22 23 24 25 26 27 28 29 30 31 32 33 34 35 36 37 38 39 40 41 42 43 44 45 46 47 48 49 50
000
ASUS43 KMKX 220107
RWRWI

WISCONSIN REGIONAL WEATHER ROUNDUP
NATIONAL WEATHER SERVICE MILWAUKEE/SULLIVAN WI
800 PM CDT THU MAY 21 2015

NOTE: "FAIR" INDICATES FEW OR NO CLOUDS BELOW 12,000 FEET WITH NO
SIGNIFICANT WEATHER AND/OR OBSTRUCTIONS TO VISIBILITY.

WIZ001-002-006>008-014>016-023>028-220200-
NORTHWEST WISCONSIN

CITY           SKY/WX    TMP DP  RH WIND       PRES   REMARKS
SUPERIOR ARPT  CLEAR     65  28  24 N10G17    30.01R
ASHLAND        CLEAR     56  44  64 CALM      30.02R
HAYWARD        CLEAR     65  27  23 N6        30.01R
SIREN          CLEAR     67  28  23 N8        30.02R
CUMBERLAND     CLEAR     63  30  29 NW10      30.01R
RICE LAKE      CLEAR     67  29  24 NW5       30.01S
CHETEK         CLEAR     66  36  32 N5        30.00R
LADYSMITH      CLEAR     64  31  29 N7        30.02R
EAU CLAIRE     CLEAR     66  34  30 N5        29.99R
MENOMONIE      CLEAR     69  29  21 NW10      30.00R
NEW RICHMOND   CLEAR     67  31  26 NW9G17    30.02R
OSCEOLA        CLEAR     67  32  27 NW9       30.04S
$$

WIZ003>005-009-010-017-018-220200-
NORTH CENTRAL WISCONSIN

CITY           SKY/WX    TMP DP  RH WIND       PRES   REMARKS
MANITOWISH WTR CLEAR     58  28  32 N8        30.01S
ARBOR VITAE    CLEAR     58  29  32 N9        30.01R
WOODRUFF       CLEAR     58  29  32 N9        30.01R
RHINELANDER    CLEAR     58  26  29 N5        30.02R
EAGLE RIVER    CLEAR     57  23  26 N7        30.01R
LAND O LAKES   CLEAR     58  24  27 NW8       30.01S
PHILLIPS       CLEAR     59  36  41 N8        30.00R
TOMAHAWK       CLEAR     59  26  28 N6        30.01S
MEDFORD        CLEAR     60  32  34 N8        30.00R
MERRILL        CLEAR     61  28  28 N12G18    30.00R
$$

WIZ029-030-035-036-043>047-220200-
CENTRAL WISCONSIN

CITY           SKY/WX    TMP DP  RH WIND       PRES   REMARKS
WAUSAU         CLEAR     62  27  26 N8        29.98R
MOSINEE        CLEAR     63  27  25 N12       29.99R
MARSHFIELD     CLEAR     64  30  27 N9        29.99R
STEVENS POINT  CLEAR     65  31  28 N14G22    29.97R
WAUPACA        PTCLDY    71  33  24 NW9       29.94R
WAUTOMA        NOT AVBL
WISC RAPIDS    CLEAR     67  32  27 N15G22    29.98R
CAMP DOUGLAS   NOT AVBL
$$

WIZ011>013-019>022-031-037>040-048>050-220200-
NORTHEAST WISCONSIN

CITY           SKY/WX    TMP DP  RH WIND       PRES   REMARKS
ANTIGO         CLEAR     60  28  29 N15       29.99R
SHAWANO        MOCLDY    59  42  53 E8        29.98R
OCONTO         PTCLDY    55  36  48 E9        29.98R
STURGEON BAY   PTCLDY    52  28  40 E9        30.01S
GREEN BAY      MOCLDY    56  41  57 E10       29.98R
MANITOWOC      NOT AVBL
APPLETON       MOCLDY    59  37  44 E14       29.95R
CLINTONVILLE   MOCLDY    59  41  51 NE8       29.96R
OSHKOSH        MOCLDY    65  41  41 N7        29.93R
$$

WIZ032>034-041-042-053>061-220200-
SOUTHWEST WISCONSIN

CITY           SKY/WX    TMP DP  RH WIND       PRES   REMARKS
LA CROSSE      CLEAR     67  43  41 NW7       29.98R
SPARTA         CLEAR     69  36  30 NW7       29.98R
VIROQUA        CLEAR     66  35  32 NW8       30.00R
BOSCOBEL       CLEAR     70  34  26 NW6       29.98R
PRAIRIE DU CHI CLEAR     70  30  22 NW8       29.98R
PLATTEVILLE    CLEAR     69  44  40 W7        29.98S
$$

WIZ056-057-062-063-064-067-068-220200-
SOUTH CENTRAL WISCONSIN

CITY           SKY/WX    TMP DP  RH WIND       PRES   REMARKS
REEDSBURG      PTCLDY    69  38  32 NW9       29.95R
BARABOO/DELLS  PTCLDY    67  37  33 W7        29.95R
LONE ROCK      NOT AVBL
MINERAL POINT  PTCLDY    68  41  37 SW5       29.98R
MADISON        PTCLDY    66  43  43 SW6       29.96R
MIDDLETON      CLEAR     67  38  34 SW6       29.97R
WATERTOWN      PTCLDY    67  38  34 SW7       29.94S
MONROE         CLEAR     64  43  45 SW10      29.99S
JANESVILLE     CLEAR     66  39  37 SW9       29.98S
$$

WIZ051-052-058>065-066-070>072-220200-
SOUTHEAST WISCONSIN

CITY           SKY/WX    TMP DP  RH WIND       PRES   REMARKS
MILWAUKEE      PTCLDY    69  34  27 W9        29.95S
WAUKESHA       PTCLDY    64  36  34 SW9       29.96S
MILWAUKEE/TIMM CLEAR     66  30  26 SW8       29.95S
RACINE         CLEAR     66  38  35 SW12      29.97S
BURLINGTON     CLEAR     65  37  35 SW14      29.97S
KENOSHA        CLEAR     64  40  41 SW13      29.98R
FOND DU LAC    MOCLDY    64  38  38 SW10      29.93S
SHEBOYGAN      LGT RAIN  51  40  65 NE18      29.96R
WEST BEND      PTCLDY    68  34  28 W8        29.94R
JUNEAU         MOCLDY    68  37  32 W13       29.95R
$$

LSZ147-162-220200-
LAKE SUPERIOR

STATION/POSITION TIME  TEMP    WIND        PRES    WAVE
                       AIR SEA DIR/SP/G            HT/PER
                 (UTC) (F)     (DEG/KT/KT) (MB)    (FT/S)
W MID LAKE BUOY  2350   43 37  160/  4/  4   N/A     0
DEVILS ISLAND    0000   52      CALM  /  2   N/A
PORT WING        0000   57      60/  5/  6   N/A
SAXON HARBOR     0040   61        CALM       N/A
$$

LMZ867-665-643>646-220200-
LAKE MICHIGAN

STATION/POSITION TIME  TEMP    WIND        PRES    WAVE
                       AIR SEA DIR/SP/G            HT/PER
                 (UTC) (F)     (DEG/KT/KT) (MB)    (FT/S)
CHAMBERS ISLAND  0000   54      50/ 12/ 17   N/A
N MID LAKE BUOY  2350   43 36  360/  8/  8   N/A     1/ 4
NORTHPORT PIER   0000   55      30/ 11/ 13   N/A
SISTER BAY       0002   57      30/  9/ 14   N/A
KEWAUNEE LAKESHO 0000           30/ 11/ 13   N/A
SHEBOYGAN LAKESH 0000           10/  8/ 11   N/A
PORT WASHINGTON  0040   64     160/  2/  3   N/A
ATWATER BUOY     0000   65 44  240/ 10/ 14   N/A
MILWAUKEE LAKESH 0015   71     260/ 13/ 22   N/A
S MID LAKE BUOY  2350   45 38  190/ 14/ 14   N/A
$$

TC  - TEMPERATURE IN CELSIUS
VSB - VISIBILITY IN STATUTE MILES
WCI - WIND CHILL INDEX
HX  - HEAT INDEX



USA.gov is the U.S. government's official web portal to all federal, state and local government web resources and services.